Weather in Gargždų

Lithuania     55°42′41″N   21°23′26″E
temp.,
°C
wind,
m/s
gust,
m/s
humid.,
%
clouds,
%
prec.,
mm/h
press.,
hPa
HPBL,
m
27 february, sat
sat2723:00+3wnw410900 0.0 1018254
02:00+2nw410912 0.0 1020273
05:00+2nw5138926 0.0 1020452
08:00+1nnw5138913 0.0 1023487
11:00+4nnw611720 0.0 1025692
14:00+6nnw710590 0.0 1028928
17:00+4nnw510670 0.0 1028661
20:00+1nw38900 0.0 1029221
28 february, sun
sun2823:00+1nw379455 0.0 1030182
02:00+2wnw358977 0.0 1029136
05:00+2wnw368741 0.0 1028123
08:00+2wnw378967 0.0 1027169
11:00+5nw477567 0.0 1026394
14:00+8nnw6116583 0.0 10271104
17:00+7nnw497259 0.0 1027642
20:00+4nnw398729 0.0 1029276
1 march, mon
mon123:00+3nnw39910 0.0 1029224
02:00+2nnw37920 0.0 1031151
05:00+2nw23910 0.0 103025
08:00+2wnw23890 0.0 103160
11:00+7w58720 0.0 1030374
14:00+8wsw610681 0.0 1029460
17:00+5w612854 0.0 1027537
20:00+3w4109235 0.0 1028328
2 march, tue
tue223:00+2wnw35930 0.0 1028104
02:00+1w12890 0.0 102922
05:00+1w12880 0.0 102822
08:00+2w22850 0.0 102922
11:00+7w34690 0.0 1029334
14:00+7w45720 0.0 1029401
17:00+5w34830 0.0 1028321
20:00+2w23961 0.0 102980
3 march, wed
wed323:00+1wsw12958 0.0 102922
02:00+1ssw129511 0.0 102922
05:000sw249967 0.0 1028105
08:000ssw349681 0.0 1028245
11:00+1ssw3590100 0.0 1028334
14:00+3ssw3586100 0.0 1026409
17:00+3ssw369189 0.0 1024305
20:00+1ssw359652 0.0 1022103